Location: Ferchesar
(52.6477°N, 12.4298°E)
Time: 09:49:40
(UTC+01:00)

Transit 2A - Pass Details

Date: 16 December 2021
Orbit: 591 x 966 km, 66.7° (Epoch: 26 January)

Event Time Altitude Azimuth Distance (km) Brightness Sun altitude
Exits shadow 05:02:08 48° 346° (NNW) 1,236 6.8 -27.9°
Maximum altitude 05:03:48 66° 45° (NE) 1,042 6.7 -27.6°
Drops below altitude 10° 05:09:57 10° 128° (SE) 2,615 9.4 -26.7°
Sets 05:12:25 0° 131° (SE) 3,513 10.2 -26.3°
